Presure
183 233 298 227 172 252 253 208 237 239 256 239 248 205 200 219 193 190 202 191 190 196 185 185 186 198 197
178 333 326 319 314 186 310 288 267 279 267 261 248 246 242 237 206 206 194 203 192 209 198 184 180 210 197
330 317 320 317 320 314 271 272 310 307 284 280 264 266 257 242 247 251 225 203 206 197 200 211 195 194 180
335 321 319 321 310 309 306 319 282 296 282 289 292 284 270 275 253 247 250 241 237 203 197 205 205 211 195
326 329 321 321 316 314 310 307 310 295 267 290 286 294 290 284 282 263 254 239 249 252 235 233 236 200 202
322 325 328 326 324 323 319 314 305 299 305 302 291 284 277 279 285 282 280 272 255 250 252 243 246 236 226
315 313 314 319 322 324 321 325 318 314 300 300 300 295 292 275 299 285 280 287 289 279 273 256 247 247 242
316 314 313 312 314 316 316 321 327 323 324 311 303 299 303 281 294 288 291 298 294 295 301 294 288 274 278
321 319 318 316 315 319 319 321 315 312 320 335 329 324 312 303 287 284 286 291 301 299 290 293 301 301 303
335 323 318 316 319 322 323 327 329 323 320 326 328 333 333 325 323 320 299 297 287 291 292 282 290 293 288
427 429 418 402 401 381 416 367 365 348 334 337 336 340 336 322 331 337 341 339 320 305 289 291 296 293 289
433 422 419 412 406 400 411 420 424 420 417 437 466 466 420 344 340 341 343 344 340 337 332 310 294 297 301
416 408 407 415 413 409 412 415 414 419 446 438 433 427 426 430 432 434 431 438 441 444 452 451 455 319 293
422 418 414 416 418 429 436 450 433 412 411 406 412 434 437 448 452 466 460 456 468 471 476 473 467 461 459
431 455 452 453 430 395 411 394 388 388 421 447 463 462 449 448 454 458 456 455 442 446 446 464 456 446 455
368 370 399 402 390 380 377 379 410 423 400 401 409 393 393 392 405 404 436 436 439 456 452 452 443 437 453
400 385 373 368 373 393 411 415 377 363 372 365 371 372 369 363 363 375 398 382 399 395 405 412 403 411 414
Wind_Speed
102 87 71 65 71 75 73 84 77 83 92 91 94 91 93 88 89 86 82 83 81 77 80 77 75 75 75
85 64 66 69 72 46 78 85 88 91 91 94 95 98 97 97 92 91 90 88 86 84 86 82 76 79 79
60 64 64 67 70 73 77 83 83 87 94 97 94 99 100 100 102 103 96 93 93 90 90 88 90 88 82
61 62 65 67 68 71 75 80 83 87 89 93 98 102 103 108 106 103 104 101 101 95 89 95 94 95 93
67 64 66 67 69 71 74 79 81 85 89 91 93 98 101 104 108 107 105 103 105 107 104 104 104 97 98
71 68 69 69 69 70 73 77 80 86 86 88 92 95 98 98 103 106 108 109 107 107 110 106 108 108 106
73 73 72 73 71 70 72 74 77 83 89 86 92 92 98 96 100 102 105 108 109 110 111 111 111 113 113
77 74 76 76 76 75 74 73 73 78 85 83 91 93 94 95 97 99 98 100 103 105 107 112 116 116 120
82 79 77 77 78 78 78 77 75 76 82 78 85 86 91 95 97 95 96 96 95 98 102 104 107 112 114
88 84 80 78 79 79 78 77 77 74 80 78 79 81 81 90 93 95 97 96 94 96 99 102 102 104 108
69 68 72 77 77 78 69 72 69 71 76 75 76 78 77 82 85 87 88 91 94 97 98 99 101 103 104
50 51 52 54 57 59 58 55 52 49 51 48 36 34 47 75 79 82 83 84 87 91 95 99 98 99 100
41 42 44 44 44 46 45 44 42 41 29 29 28 31 32 34 36 38 41 40 40 41 40 44 46 98 95
33 33 33 34 34 32 28 22 19 25 26 28 28 27 25 24 24 22 23 26 29 26 24 24 25 26 28
24 24 21 18 18 21 14 17 19 21 20 16 16 14 14 15 16 15 15 11 17 16 18 20 23 23 20
19 20 12 9 11 13 15 16 12 5 5 4 3 6 6 7 7 7 3 5 6 8 10 10 8 10 10
3 6 9 11 13 9 5 4 5 5 3 5 3 2 3 5 5 3 3 3 1 2 2 1 6 4 9
Wind_Direction
276 278 271 273 285 269 262 272 256 261 254 253 254 251 254 253 254 255 248 252 252 249 257 256 254 246 246
288 271 265 263 261 270 257 256 256 253 253 252 252 252 251 250 249 247 253 247 253 247 245 257 260 246 244
273 271 266 264 260 257 261 260 252 249 251 251 253 249 248 250 250 249 247 249 248 250 247 247 246 246 257
275 270 266 262 259 257 257 255 255 252 252 250 250 250 248 246 247 249 249 246 249 251 252 246 245 247 246
279 274 268 264 260 257 254 254 253 251 255 251 249 249 249 249 248 247 248 248 249 248 248 249 249 249 251
279 276 273 269 265 261 256 254 252 252 251 251 249 249 249 249 251 250 249 248 246 247 247 248 248 247 247
277 275 274 272 269 265 261 258 255 253 251 250 251 249 248 250 248 249 250 251 250 249 248 246 246 247 247
278 274 272 271 270 267 265 262 260 257 255 249 251 251 251 251 249 248 249 249 250 250 250 251 251 250 249
278 276 273 270 268 267 266 264 261 259 260 257 254 253 252 251 251 251 250 249 249 249 249 249 249 250 251
277 275 273 272 271 270 267 266 266 263 262 261 258 256 254 254 254 252 251 250 250 249 248 249 248 248 249
276 277 277 277 278 276 278 272 271 269 265 263 262 261 257 255 256 255 254 253 250 249 250 250 249 249 249
273 273 274 275 276 277 278 280 281 279 277 277 275 271 263 257 256 257 256 254 253 251 251 250 250 249 249
273 274 275 275 276 275 278 279 279 279 277 275 276 272 268 265 263 263 262 263 263 263 264 260 257 251 251
279 279 279 278 276 276 274 274 275 274 277 278 280 282 278 275 271 266 264 261 262 262 261 251 246 247 253
291 286 279 274 273 278 269 268 271 277 286 304 302 287 268 268 266 254 255 245 253 256 259 257 245 253 260
291 288 278 276 278 275 275 274 272 257 272 285 290 271 269 269 261 255 238 248 261 277 254 247 237 241 237
328 319 289 276 269 270 269 187 207 227 212 244 243 240 256 255 249 252 66 234 130 237 212 162 219 207 221